HST 1 20580U 90037B 25105.28464328 .00009419 00000-0 36439-3 0 9995 2 20580 28.4666 111.0506 0002268 121.3580 238.7237 15.24445431723075 ISS (ZARYA) 1 25544U 98067A 25105.90508772 .00016104 00000-0 29378-3 0 9995 2 25544 51.6364 255.5165 0005235 44.4016 315.7392 15.49579705505507 CXO 1 25867U 99040B 25108.61304746 .00000973 00000-0 00000-0 0 9996 2 25867 48.1491 132.6945 8512217 308.4397 0.0724 0.37804094 15719